Regional Weather Roundup
Issued by NWS

Home | Current Version | Previous Version | Text Only | Print | Product List | Glossary On
Versions: 1 2 3 4 5 6 7 8 9 10 11 12 13 14 15 16 17 18 19 20 21 22 23 24 25 26 27 28 29 30 31 32 33 34 35 36 37 38 39 40 41 42 43 44 45 46 47 48 49 50
000
ASUS42 KTBW 140019
RWRFL
FLORIDA REGIONAL WEATHER ROUNDUP
NATIONAL WEATHER SERVICE TAMPA BAY RUSKIN FL
700 PM EST FRI DEC 13 2019

NOTE: "FAIR" INDICATES FEW OR NO CLOUDS BELOW 12,000 FEET WITH NO
SIGNIFICANT WEATHER AND/OR OBSTRUCTIONS TO VISIBILITY.

FLZ001>010-012>015-112-114-115-140100-
PANHANDLE FLORIDA

CITY           SKY/WX    TMP DP  RH WIND       PRES   REMARKS
PENSACOLA      CLOUDY    55  55 100 N9        29.80R
PENSACOLA NAS  CLOUDY    55  55 100 N12G21    29.80S FOG
MILTON NAS     HVY RAIN  53  52  96 CALM      29.82  FOG
CRESTVIEW      RAIN      53  51  93 N8        29.82R FOG
DUKE FIELD     LGT RAIN  54  54 100 NW12      29.79R FOG
VALPARAISO     LGT RAIN  57  57 100 N5        29.78R
MARY ESTHER    LGT RAIN  59  57  94 NW9       29.78R FOG
TRI COUNTY     FOG       51  50  96 E5        29.79F THUNDER VSB 1/2
PANAMA CITY    CLOUDY    56  53  90 NE7       29.77F FOG
TYNDALL AFB    MOCLDY    60  56  87 NE5       29.77F
APALACHICOLA   CLOUDY    60  58  92 E9        29.79F FOG

STATION/POSITION SKY/WX   TEMP    WIND        PRES    WAVE   SWELL
                          AIR SEA DIR/SP/G            HT/PER HT/PER
                          (F)     (DEG/KT/KT) (MB)    (FT/S) (FT/S)
30.1N   87.6W              59 66  350/ 19/ 23 1008.9R   3/ 6   2/ 6
29.2N   88.2W              69 73  320/ 16/ 19 1008.8R   4/ 7   2/ 7
28.8N   86.0W                 74  220/ 10/ 12 1008.5F   4/ 6   3/ 6
PANAMA CITY BEAC           57 62   50/  9/ 11 1008.6F
TOWER C                    64      80/ 12/ 12 1008.9F
28.5N   84.5W              74     190/ 12/ 16 1010.0R   3/ 5   2/ 7

$$
FLZ011-016>038-118-127-128-134-139-239-140100-
NORTH FLORIDA

CITY           SKY/WX    TMP DP  RH WIND       PRES   REMARKS
MARIANNA       FOG       50  50 100 E7        29.80F VSB 1
TALLAHASSEE    FOG       55  53  93 E5        29.82R VSB 1
PERRY          FOG       59  58  97 E5        29.82F VSB 1/2
LIVE OAK       FOG       59  59 100 CALM      29.83F VSB 1/4
CROSS CITY     FOG       64  63  99 E3        29.82F VSB<1/4
LAKE CITY      CLOUDY    59  59 100 CALM      29.84F FOG
GAINESVILLE    FOG       63  62  97 CALM      29.86F VSB 1/4
WILLISTON        N/A     64  64  99 CALM      29.84F FOG
PALATKA        FAIR      63  63 100 CALM      29.84F
MAYPORT NAS    CLOUDY    61  61 100 CALM      29.85S FOG
JACKSONVILLE   CLOUDY    65  62  90 N3        29.83F
JAX NAS        CLOUDY    65  63  93 SE9       29.85S FOG
JAX CECIL      PTCLDY    64  63  94 CALM      29.84F FOG
FERNANDINA BEA CLOUDY    61 N/A N/A N5        29.85S FOG
ST AUGUSTINE   FOG       64  63  96 NE3       29.86S VSB 1
PALM COAST     CLEAR     70  66  88 CALM      29.85S

STATION/POSITION SKY/WX   TEMP    WIND        PRES    WAVE   SWELL
                          AIR SEA DIR/SP/G            HT/PER HT/PER
                          (F)     (DEG/KT/KT) (MB)    (FT/S) (FT/S)
SHELL POINT      NOT AVBL
KEATON BEACH               62      60/  6/  8 1009.4F
CEDAR KEY                  66      90/  6/  6 1010.3F
FERNANDINA                 64 62  340/  2/  3 1011.4F
30.7N   81.3W                 62                N/A     5/ 8
MAYPORT                    61 64   20/  3/  3 1010.9F
31.4N   80.9W              59 61  350/ 10/ 10 1010.4F   5/ 7   5/ 7
ST AUGUSTINE               64 66  350/  9/ 11 1011.0F

$$
FLZ040-043>046-052-053-057-058-063-144-140100-
INTERIOR CENTRAL FLORIDA

CITY           SKY/WX    TMP DP  RH WIND       PRES   REMARKS
OCALA          FAIR      66  66 100 CALM      29.85F
LEESBURG       FAIR      69  66  90 CALM      29.85S
SANFORD        FAIR      70  69  97 S3        29.84R
ORLANDO EXEC   FAIR      71  68  90 CALM      29.85R
ORLANDO INTL   CLOUDY    72  67  84 CALM      29.84R
KISSIMMEE      FAIR      71  69  93 CALM      29.86R
WINTER HAVEN   FAIR      72  66  81 SW6       29.86R
LAKELAND       CLEAR     70  68  94 SW5       29.85R
BARTOW         FAIR      72  68  88 S5        29.85R
SEBRING        FAIR      71  68  88 S10       29.85S
OKEECHOBEE     FAIR      72  64  78 S6        29.87F

$$
FLZ041-047-054-059-064-141-147-140100-
EAST CENTRAL FLORIDA

CITY           SKY/WX    TMP DP  RH WIND       PRES   REMARKS
ORMOND BEACH   PTCLDY    68  66  94 CALM      29.86R
DAYTONA BEACH  CLOUDY    69  69 100 N5        29.86R
DELAND         FAIR      68 N/A N/A CALM      29.85R FOG
NEW SMYRNA BEA PTCLDY    68  68 100 CALM      29.86S
JFK SPACE CTR  FAIR      71  69  94 CALM      29.84R
TITUSVILLE     CLOUDY    73  72  94 S3        29.85R
CAPE CANAVERAL FAIR      71  70  96 S5        29.83S
PATRICK AFB    FAIR      73  73 100 S8        29.83F
MELBOURNE      FAIR      74  68  81 SE7       29.82F
VERO BEACH     FAIR      74  68  81 S3        29.86F
FT PIERCE      FAIR      73  67  81 S5        29.86F
STUART         MOCLDY    75  68  78 CALM      29.89F

STATION/POSITION SKY/WX   TEMP    WIND        PRES    WAVE   SWELL
                          AIR SEA DIR/SP/G            HT/PER HT/PER
                          (F)     (DEG/KT/KT) (MB)    (FT/S) (FT/S)
28.5N   80.2W              76 77  180/ 12/ 14 1011.2F   5/ 8   5/ 8
28.9N   78.5W              78     210/ 19/ 27 1011.8    9/ 9
TRIDENT PIER               72 71  130/  4/  7 1011.5F
28.4N   80.5W                 73                N/A     3/11   2/11
27.5N   80.2W                 74                N/A     5/10   2/11

$$
FLZ050-056-061-142-242-148-248-149-249-151-251-155-255-
160-260-140100-
WEST CENTRAL FLORIDA

CITY           SKY/WX    TMP DP  RH WIND       PRES   REMARKS
CRYSTAL RIVER  FAIR      66  64  94 CALM      29.83F FOG
INVERNESS      FOG       64  64 100 CALM      29.84F VSB 3/4
BROOKSVILLE    FAIR      67  65  93 SE3       29.84R
CLEARWATER AIR FAIR      68  66  94 CALM      29.83S
ST PETE CLEARW FAIR      71  67  87 S10       29.82F
TAMPA INTL     CLOUDY    70  66  87 S5        29.84F
TAMPA EXEC     FAIR      70  68  94 SW3       29.86R
PLANT CITY     FAIR      70  70 100 S5        29.86S
MACDILL AFB    FAIR      69  67  92 SW8       29.83S
PETER O KNIGHT MOCLDY   N/A N/A N/A SW5       29.85R
ST PETERSBURG  FAIR      70  68  93 SW6       29.83R
SARASOTA       FAIR      73  69  87 S12       29.83R
VENICE         FAIR      72  72 100 S12G18    29.84F

STATION/POSITION SKY/WX   TEMP    WIND        PRES    WAVE   SWELL
                          AIR SEA DIR/SP/G            HT/PER HT/PER
                          (F)     (DEG/KT/KT) (MB)    (FT/S) (FT/S)
27.3N   84.3W                 78                N/A     3/ 5
CLEARWATER BEACH           71 71  150/ 10/ 12 1010.0F
MIDDLE TAMPA BAY           70     210/  3/  5 1010.2F
VENICE                     71 71  150/ 15/ 16 1010.0F

$$
FLZ066-069-070-075>078-162-262-165-265-140100-
SOUTHWEST FLORIDA AND KEYS

CITY           SKY/WX    TMP DP  RH WIND       PRES   REMARKS
PUNTA GORDA    FAIR      71  70  96 S9        29.87S
FT MYERS       FAIR      73  69  87 S6        29.86F
SOUTHWEST INTL FAIR      72  68  87 S9        29.87F
NAPLES         FAIR      74  70  87 S7        29.89S
MARCO ISLAND   FAIR      72  70  93 SE5       29.91R
IMMOKALEE      FAIR      73  68  83 S7        29.89F
MARATHON       FAIR      77  68  73 CALM      29.91S
KEY WEST NAS   CLOUDY    76  68  76 CALM      29.91S
KEY WEST INTL  FAIR      76  69  79 CALM      29.92S

STATION/POSITION SKY/WX   TEMP    WIND        PRES    WAVE   SWELL
                          AIR SEA DIR/SP/G            HT/PER HT/PER
                          (F)     (DEG/KT/KT) (MB)    (FT/S) (FT/S)
NAPLES                     75 73  160/  2/  5 1012.3R
26.0N   85.6W                 82  190/  6/  8 1011.6R   3/ 7   3/ 7
DRY TORTUGAS               77     270/  2/  5 1012.9R
SAND KEY                   77     250/  3/  4 1011.7
SOMBRERO KEY               78     260/  5/  7   N/A

$$
FLZ067-068-071>074-168-172>174-140100-
SOUTHEAST FLORIDA

CITY           SKY/WX    TMP DP  RH WIND       PRES   REMARKS
W PALM BEACH   CLOUDY    76  66  71 SW7       29.90S
BOCA RATON     PTCLDY    75  66  73 SW8       29.89F
FT LAUDER-EXEC FAIR      74  66  76 SW6       29.89F
FT LAUDERDALE  CLOUDY    75  65  70 SW9       29.89F
POMPANO BEACH  FAIR      76  64  66 SW8       29.89F
PEMBROKE PINES FAIR      76  66  71 SW6       29.91F
OPA LOCKA      FAIR      75  66  73 SW7       29.91S
MIAMI          CLOUDY    78  64  61 SW8       29.91S
WEST KENDALL   FAIR      74  68  81 SW7       29.91S
HOMESTEAD      FAIR      71  67  87 SW5       29.90S

STATION/POSITION SKY/WX   TEMP    WIND        PRES    WAVE   SWELL
                          AIR SEA DIR/SP/G            HT/PER HT/PER
                          (F)     (DEG/KT/KT) (MB)    (FT/S) (FT/S)
VIRGINIA KEY               77 78  220/  8/  9 1012.4F
LAKE WORTH                 77 78  230/  3/  6 1013.3F
FOWEY ROCKS                76 76  25


USA.gov is the U.S. government's official web portal to all federal, state and local government web resources and services.